CHINASAT 9B

Last updated on Fri Dec 19 2025 00:02:53 GMT+0000 (Coordinated Universal Time)

1 49125U 21080A 25352.67482883 -.00000287 00000+0 00000+0 0 9991 2 49125 0.0316 80.5984 0002963 167.5184 183.7737 1.00269515 15831
UTC large
Height (km)
Speed (km/s)
/
Latitude / Longitude
Inclination (degrees)
Orbital Period (minutes)
Azimuth
Elevation
Range (km)
Doppler Factor

Next 0 passes for location: London (51.5072 / 0.1276)

Sorry there are no passes over London.